Flag for Germany Weather past 2 weeks in Kiel, Schleswig-Holstein, Germany

Now
50 °F

Passing clouds.


Feels Like: 46 °F
Forecast: 36 / 54 °F
Wind: 10 mph from West

Location: Kiel / Holtenau Civilian

Current Time: Apr 28, 2015 at 2:29:28 PM

Latest Report: Apr 28, 2015 at 1:50 PM


Visibility: N/A

Pressure: 29.92 "Hg

Humidity: 47%

Dew point: 30 °F

Location of KielLocation

Historic Weather in Kiel — Graph

°F

Kiel temperature yesterday

Maximum temperature yesterday: 52 °F (at 4:50 PM)
Minimum temperature yesterday: 43 °F (at 6:20 AM)
Average temperature yesterday: 47 °F

Past Weeks' High & Low Weather Summary

 TemperatureHumidityPressure
High61 °F (Apr 15, 1:20 PM)100% (Apr 20, 6:20 AM)30.36 "Hg (Apr 20, 6:20 AM)
Low36 °F (Apr 20, 6:20 AM)39% (Apr 20, 4:50 PM)29.65 "Hg (Apr 25, 3:20 PM)
Average50 °F68%30.03 "Hg
* Reported Apr 13 1:20 PM — Apr 28 1:20 PM, Kiel, Weather by CustomWeather, © 2015

Note: Actual official high and low records may vary slightly from our data, if they occured in-between our weather recording intervals... More about our weather records

Advertising

Kiel weather history for previous 24 hours

 ConditionsComfort  
Time TempWeatherWind HumidityBarometerVisibility
1:20 PM
Tue, Apr 28
50 °FScattered clouds.9 mph47%29.92 "HgN/A
12:50 PM50 °FScattered clouds.10 mph47%29.92 "HgN/A
12:20 PM48 °FScattered clouds.8 mph54%29.92 "HgN/A
11:50 AM46 °FScattered clouds.7 mph53%29.92 "HgN/A
11:20 AM46 °FScattered clouds.7 mph57%29.89 "HgN/A
10:50 AM45 °FScattered clouds.7 mph57%29.89 "HgN/A
10:20 AM45 °FScattered clouds.5 mph61%29.89 "HgN/A
9:50 AM45 °FScattered clouds.6 mph57%29.89 "HgN/A
9:20 AM45 °FPassing clouds.5 mph71%29.89 "HgN/A
8:50 AM41 °FPassing clouds.5 mph76%29.89 "HgN/A
8:20 AM41 °FPassing clouds.5 mph76%29.89 "HgN/A
7:50 AM39 °FPassing clouds.6 mph81%29.86 "HgN/A
7:20 AM36 °FScattered clouds.6 mph93%29.86 "HgN/A
7:50 PM
Mon, Apr 27
45 °FSunny.10 mph57%29.77 "Hg10 mi
7:20 PM46 °FSunny.12 mph53%29.77 "Hg10 mi
6:50 PM48 °FPassing clouds.13 mph54%29.77 "HgN/A
6:20 PM50 °FScattered clouds.13 mph54%29.77 "HgN/A
5:50 PM50 °FScattered clouds.13 mph58%29.77 "HgN/A
5:20 PM50 °FSunny.12 mph54%29.74 "Hg10 mi
4:50 PM52 °FScattered clouds.12 mph50%29.74 "HgN/A
4:20 PM50 °FScattered clouds.10 mph50%29.74 "HgN/A
3:50 PM50 °FScattered clouds.8 mph54%29.74 "HgN/A
3:20 PM50 °FScattered clouds.9 mph47%29.74 "HgN/A
2:50 PM48 °FScattered clouds.6 mph62%29.74 "HgN/A
2:20 PM48 °FScattered clouds.10 mph58%29.74 "HgN/A
Weather by CustomWeather, © 2015

See weather overviewHow to use our weather pages